Location: Bruderhein
(53.8035°N, 112.9265°W)
Time: 02:08:22
(UTC+00:00)

STRAND 1 - Pass Details

Date: 09 April 2023
Orbit: 767 x 779 km, 98.4° (Epoch: 31 May)

Event Time Altitude Azimuth Distance (km) Brightness Sun altitude
Rises 11:54:26 0° 127° (SE) 3,243 ? -8.0°
Reaches altitude 10° 11:57:00 10° 116° (ESE) 2,318 ? -7.6°
Maximum altitude 12:01:18 28° 58° (ENE) 1,416 ? -7.0°
Drops below altitude 10° 12:05:36 10° 1° (N) 2,325 ? -6.4°
Sets 12:08:10 0° 350° (N) 3,255 ? -6.1°
